Regional Weather Roundup
Issued by NWS

Home | Current Version | Previous Version | Graphics & Text | Print | Product List | Glossary Off
Versions: 1 2 3 4 5 6 7 8 9 10 11 12 13 14 15 16 17 18 19 20 21 22 23 24 25 26 27 28 29 30 31 32 33 34 35 36 37 38 39 40 41 42 43 44 45 46 47 48 49 50

000
ASUS43 KMKX 241221
RWRWI

WISCONSIN REGIONAL WEATHER ROUNDUP
NATIONAL WEATHER SERVICE MILWAUKEE/SULLIVAN WI
700 AM CDT WED MAY 24 2017

NOTE: "FAIR" INDICATES FEW OR NO CLOUDS BELOW 12,000 FEET WITH NO
SIGNIFICANT WEATHER AND/OR OBSTRUCTIONS TO VISIBILITY.

WIZ001-002-006>008-014>016-023>028-241300-
NORTHWEST WISCONSIN

CITY           SKY/WX    TMP DP  RH WIND       PRES   REMARKS
SUPERIOR ARPT  NOT AVBL
ASHLAND        CLOUDY    43  40  89 N7        29.82S
6HR MIN TEMP:  43; 6HR MAX TEMP:  47;

HAYWARD        CLOUDY    47  43  86 N7        29.79F
6HR MIN TEMP:  45; 6HR MAX TEMP:  47;

SIREN          CLOUDY    45  44  96 CALM      29.81S
6HR MIN TEMP:  42; 6HR MAX TEMP:  48;

CUMBERLAND     CLOUDY    45  41  87 NE9       29.78S
RICE LAKE      CLOUDY    46  42  86 N9        29.79S
6HR MIN TEMP:  46; 6HR MAX TEMP:  46;

CHETEK         CLOUDY    47  43  88 NE5       29.78S
6HR MIN TEMP:  45; 6HR MAX TEMP:  47;

LADYSMITH      CLOUDY    47  44  92 N5        29.78F
6HR MIN TEMP:  44; 6HR MAX TEMP:  47;

EAU CLAIRE     CLOUDY    48  43  82 N8        29.75R
6HR MIN TEMP:  48; 6HR MAX TEMP:  50;

MENOMONIE      PTSUNNY   48  45  90 N8        29.77R
6HR MIN TEMP:  46; 6HR MAX TEMP:  50; 6HR PCP:  0.01;

NEW RICHMOND   CLOUDY    46  44  91 NE7       29.78S
6HR MIN TEMP:  44; 6HR MAX TEMP:  46;

OSCEOLA        CLOUDY    47  47 100 N6        29.81S
6HR MIN TEMP:  44; 6HR MAX TEMP:  47;

$$

WIZ003>005-009-010-017-018-241300-
NORTH CENTRAL WISCONSIN

CITY           SKY/WX    TMP DP  RH WIND       PRES   REMARKS
MANITOWISH WTR CLOUDY    45  45 100 N6        29.77F
6HR MIN TEMP:  44; 6HR MAX TEMP:  45;

ARBOR VITAE    CLOUDY    47  44  90 N6        29.76S
6HR MIN TEMP:  46; 6HR MAX TEMP:  47;

WOODRUFF       CLOUDY    47  44  90 N6        29.76S
6HR MIN TEMP:  46; 6HR MAX TEMP:  47;

RHINELANDER    CLOUDY    47  45  93 NE5       29.75S
6HR MIN TEMP:  47; 6HR MAX TEMP:  47; 6HR PCP:  0.05;

EAGLE RIVER    LGT RAIN  46  44  95 N8        29.76S
6HR MIN TEMP:  44; 6HR MAX TEMP:  46;

LAND O LAKES   CLOUDY    46  43  91 N6        29.78F FOG
6HR MIN TEMP:  45; 6HR MAX TEMP:  46;

PHILLIPS       CLOUDY    46  44  92 N9        29.77R
6HR MIN TEMP:  45; 6HR MAX TEMP:  47;

TOMAHAWK       CLOUDY    45  43  93 CALM      29.76S
6HR MIN TEMP:  45; 6HR MAX TEMP:  48;

MEDFORD        CLOUDY    45  43  92 NE9       29.74S
6HR MIN TEMP:  45; 6HR MAX TEMP:  47;

MERRILL        RAIN      46  46 100 NE5       29.74F
6HR MIN TEMP:  46; 6HR MAX TEMP:  49; 6HR PCP:  0.04;

$$

WIZ029-030-035-036-043>047-241300-
CENTRAL WISCONSIN

CITY           SKY/WX    TMP DP  RH WIND       PRES   REMARKS
WAUSAU         CLOUDY    47  46  97 N5        29.72R
6HR MIN TEMP:  47; 6HR MAX TEMP:  50; 6HR PCP:  0.12;

MOSINEE        LGT RAIN  46  46 100 N7        29.73S FOG
MARSHFIELD     LGT RAIN  47  44  90 NE12      29.72S FOG
6HR MIN TEMP:  47; 6HR MAX TEMP:  50; 6HR PCP: TRACE;

STEVENS POINT  DRIZZLE   46  46 100 N7        29.72S
6HR MIN TEMP:  46; 6HR MAX TEMP:  48;

WAUPACA        DRIZZLE   50  49  95 N6        29.71S
6HR MIN TEMP:  50; 6HR MAX TEMP:  52; 6HR PCP:  0.01;

WAUTOMA        CLOUDY    48  47  96 NE9       29.70S FOG
6HR MIN TEMP:  48; 6HR MAX TEMP:  50;

WISC RAPIDS    CLOUDY    49  47  93 N8        29.72S FOG
6HR MIN TEMP:  48; 6HR MAX TEMP:  51; 6HR PCP:  0.06;

CAMP DOUGLAS   DRIZZLE   48  48 100 N5        29.70S
                                      6HR PCP:  0.02;

$$

WIZ011>013-019>022-031-037>040-048>050-241300-
NORTHEAST WISCONSIN

CITY           SKY/WX    TMP DP  RH WIND       PRES   REMARKS
ANTIGO         LGT RAIN  46  46 100 NE8       29.73S
6HR MIN TEMP:  45; 6HR MAX TEMP:  47; 6HR PCP:  0.05;

SHAWANO        CLOUDY    50  48  92 NE10      29.71F
6HR MIN TEMP:  49; 6HR MAX TEMP:  51; 6HR PCP:  0.08;

OCONTO         CLOUDY    47  46  97 NE7       29.71S
6HR MIN TEMP:  47; 6HR MAX TEMP:  48; 6HR PCP:  0.09;

STURGEON BAY   CLOUDY    48  46  93 NE9       29.71S
6HR MIN TEMP:  48; 6HR MAX TEMP:  48;

GREEN BAY      CLOUDY    49  49 100 NE14      29.70S FOG
6HR MIN TEMP:  49; 6HR MAX TEMP:  50; 6HR PCP:  0.03;

MANITOWOC      LGT RAIN  46  45  93 N6        29.70S VSB 1
6HR MIN TEMP:  46; 6HR MAX TEMP:  48; 6HR PCP:  0.04;

APPLETON       CLOUDY    48  48 100 NE9       29.68S FOG
CLINTONVILLE   CLOUDY    46  46 100 NE7       29.71S FOG
OSHKOSH        CLOUDY    50  48  93 NE13      29.68S FOG
6HR MIN TEMP:  49; 6HR MAX TEMP:  51; 6HR PCP:  0.04;

$$

WIZ032>034-041-042-053>061-241300-
SOUTHWEST WISCONSIN

CITY           SKY/WX    TMP DP  RH WIND       PRES   REMARKS
LA CROSSE      CLOUDY    53  50  89 N7        29.71S
6HR MIN TEMP:  52; 6HR MAX TEMP:  53; 6HR PCP: TRACE;

SPARTA         LGT RAIN  47  47 100 N8        29.72S
6HR MIN TEMP:  47; 6HR MAX TEMP:  48; 6HR PCP:  0.02;

VIROQUA        CLOUDY    49  48  99 MISG      29.68F
6HR MIN TEMP:  48; 6HR MAX TEMP:  49;

BOSCOBEL       CLOUDY    52  49  89 N3        29.68S
6HR MIN TEMP:  52; 6HR MAX TEMP:  54;

PRAIRIE DU CHI CLOUDY    51  46  82 N5        29.68S
6HR MIN TEMP:  51; 6HR MAX TEMP:  53;

PLATTEVILLE    CLOUDY    51  51 100 N9        29.66S
6HR MIN TEMP:  51; 6HR MAX TEMP:  53;

$$

WIZ056-057-062-063-064-067-068-241300-
SOUTH CENTRAL WISCONSIN

CITY           SKY/WX    TMP DP  RH WIND       PRES   REMARKS
REEDSBURG      CLOUDY    49  49 100 NE10      29.68S FOG
6HR MIN TEMP:  48; 6HR MAX TEMP:  49;

BARABOO/DELLS  DRIZZLE   49  47  95 NE7       29.68S
6HR MIN TEMP:  48; 6HR MAX TEMP:  49;

LONE ROCK      CLOUDY    52  48  86 NE8       29.67S
6HR MIN TEMP:  51; 6HR MAX TEMP:  53;

MINERAL POINT  CLOUDY    50  50 100 N8        29.66R FOG
MADISON        CLOUDY    51  49  92 N8        29.66R
6HR MIN TEMP:  49; 6HR MAX TEMP:  51;

MIDDLETON      CLOUDY    51  51 100 NE6       29.67S
6HR MIN TEMP:  51; 6HR MAX TEMP:  52;

WATERTOWN      DRIZZLE   49  49 100 N6        29.65S
6HR MIN TEMP:  48; 6HR MAX TEMP:  49; 6HR PCP:  0.01;

MONROE         CLOUDY    50  48  93 N9        29.64S
JANESVILLE     CLOUDY    52  52 100 N7        29.63S FOG
$$

WIZ051-052-058>065-066-070>072-241300-
SOUTHEAST WISCONSIN

CITY           SKY/WX    TMP DP  RH WIND       PRES   REMARKS
MILWAUKEE      LGT RAIN  49  48  97 N8        29.65S VSB 3/4
6HR MIN TEMP:  47; 6HR MAX TEMP:  49; 6HR PCP:  0.17;

WAUKESHA       FOG       48  48 100 NE6       29.66S VSB 1
MILWAUKEE/TIMM DRIZZLE   48  45  87 N6        29.66S
RACINE         LGT RAIN  47  46  97 N10       29.65F
6HR MIN TEMP:  47; 6HR MAX TEMP:  47; 6HR PCP:  0.37;

KENOSHA        RAIN      50  48  93 N7        29.63S FOG
6HR MIN TEMP:  49; 6HR MAX TEMP:  50; 6HR PCP:  0.30;

FOND DU LAC    CLOUDY    50  47  89 NE8       29.68S
6HR MIN TEMP:  50; 6HR MAX TEMP:  51; 6HR PCP:  0.01;

SHEBOYGAN      CLOUDY    47  47 100 N6        29.68R FOG
6HR MIN TEMP:  47; 6HR MAX TEMP:  48; 6HR PCP:  0.04;

WEST BEND      CLOUDY    46  46 100 NE5       29.67S FOG
JUNEAU         CLOUDY    49  49  98 N7        29.67F
6HR MIN TEMP:  48; 6HR MAX TEMP:  49; 6HR PCP:  0.01;

$$

LSZ147-162-241300-
LAKE SUPERIOR

STATION/POSITION TIME  TEMP    WIND        PRES    WAVE
                       AIR SEA DIR/SP/G            HT/PER
                 (UTC) (F)     (DEG/KT/KT) (MB)    (FT/S)
W MID LAKE BUOY  1150   40 37   10/  6/  8 1010.6F   1
DEVILS ISLAND    1200   42      50/ 11/ 11 1010.8R
SAXON HARBOR     1130   43     350/  2/  3 1009.8S
$$

LMZ867-665-643>646-241300-
LAKE MICHIGAN

STATION/POSITION TIME  TEMP    WIND        PRES    WAVE
                       AIR SEA DIR/SP/G            HT/PER
                 (UTC) (F)     (DEG/KT/KT) (MB)    (FT/S)
CHAMBERS ISLAND  1140   47      10/ 12/ 15 1006.1S
N MID LAKE BUOY  1150   41 39   30/  8/  8 1007.5R   1/ 3



USA.gov is the U.S. government's official web portal to all federal, state and local government web resources and services.